Tracking 31027 objects as of 19-Jul-2025
HD Live streaming from Space Station
objects crossing your sky now

BREEZE-M DEB (TANK)

Track BREEZE-M DEB (TANK) now!
10-day predictions


NORAD ID: 38344
Int'l Code: 2012-026C
Perigee: 238.7 km
Apogee: 22,325.2 km
Inclination: 49.1 °
Period: 389.0 minutes
Semi major axis: 17652 km
RCS: 6.905 m2 (large)
Launch date: May 17, 2012
Source: Commonwealth of Independent States (former USSR) (CIS)
Launch site: TYURATAM MISSILE AND SPACE COMPLEX (TTMTR)

Note: This is SATELLITE DEBRIS
Your satellite tracking list
COSMOS 2251 DEB
Track 1 satellite(s)




NASA's NSSDC Master Catalog

Two Line Element Set (TLE):
1 38344U 12026C   25198.98863822  .00011732  00000-0  99209-3 0  9990
2 38344  49.0847 115.9654 6255754 113.6188 321.6979  3.70150206169040
Source of the keplerian elements: AFSPC